When you browse on this site, cookies collect data to enhance your experience and personalize the content and advertising you see.
Visit our Privacy Policy to learn more. By continuing to use the site, you agree to this use of cookies and data.
  • In Austria
  • List of Countries
  • For 7 days
  • Water Temperature
  • Weather Map
  • News
  • Weather Widgets
  • user-avatar
    Login

    Hourly Weather Jaltocan

    Today, 17 September, Tuesday

    Time Temperature Precipitation Wind Pressure Humidity
    00:00 +25°C° 0 mm 1 mps 746 mmHg 89%
    01:00 +25°C° 0 mm 1 mps 745 mmHg 88%
    02:00 +25°C° 0 mm 1 mps 745 mmHg 88%
    03:00 +24°C° 0 mm 1 mps 745 mmHg 88%
    04:00 +24°C° 0 mm 1 mps 745 mmHg 88%
    05:00 +24°C° 0 mm 1 mps 745 mmHg 90%
    06:00 +26°C° 0 mm 1 mps 746 mmHg 86%
    07:00 +26°C° 0 mm 0 mps 746 mmHg 82%
    08:00 +27°C° 0 mm 0 mps 747 mmHg 77%
    09:00 +30°C° 0.3 mm 1 mps 746 mmHg 75%
    10:00 +31°C° 0.3 mm 1 mps 746 mmHg 72%
    11:00 +32°C° 0.3 mm 2 mps 746 mmHg 70%
    12:00 +32°C° 0.2 mm 2 mps 745 mmHg 71%
    13:00 +32°C° 0.2 mm 2 mps 744 mmHg 71%
    14:00 +32°C° 0.2 mm 2 mps 743 mmHg 72%
    15:00 +31°C° 0.4 mm 2 mps 743 mmHg 77%
    16:00 +31°C° 0.4 mm 1 mps 743 mmHg 82%
    17:00 +30°C° 0.4 mm 1 mps 743 mmHg 87%
    18:00 +29°C° 0.3 mm 1 mps 744 mmHg 90%
    19:00 +27°C° 0.3 mm 1 mps 745 mmHg 92%
    20:00 +26°C° 0.3 mm 1 mps 746 mmHg 95%
    21:00 +26°C° 0 mm 1 mps 745 mmHg 95%
    22:00 +26°C° 0 mm 1 mps 745 mmHg 95%
    23:00 +26°C° 0 mm 1 mps 745 mmHg 95%

    Tomorrow, 18 September, Wednesday

    Time Temperature Precipitation Wind Pressure Humidity
    00:00 +25°C° 0.1 mm 1 mps 745 mmHg 95%
    01:00 +25°C° 0.1 mm 1 mps 745 mmHg 94%
    02:00 +25°C° 0.1 mm 1 mps 744 mmHg 94%
    03:00 +25°C° 0 mm 1 mps 744 mmHg 94%
    04:00 +25°C° 0 mm 1 mps 744 mmHg 94%
    05:00 +25°C° 0 mm 1 mps 744 mmHg 93%
    06:00 +24°C° 0.1 mm 0 mps 744 mmHg 91%
    07:00 +25°C° 0.1 mm 0 mps 745 mmHg 89%
    08:00 +26°C° 0.1 mm 0 mps 745 mmHg 87%
    09:00 +29°C° 0.2 mm 1 mps 745 mmHg 81%
    10:00 +31°C° 0.2 mm 1 mps 745 mmHg 76%
    11:00 +32°C° 0.2 mm 2 mps 744 mmHg 70%
    12:00 +32°C° 1 mm 2 mps 744 mmHg 74%
    13:00 +31°C° 1 mm 2 mps 743 mmHg 78%
    14:00 +31°C° 1 mm 2 mps 742 mmHg 81%
    15:00 +30°C° 2.2 mm 1 mps 742 mmHg 85%
    16:00 +29°C° 2.2 mm 1 mps 742 mmHg 89%
    17:00 +29°C° 2.2 mm 1 mps 742 mmHg 93%
    18:00 +28°C° 1.5 mm 1 mps 743 mmHg 93%
    19:00 +25°C° 1.5 mm 0 mps 744 mmHg 93%
    20:00 +24°C° 1.5 mm 0 mps 744 mmHg 94%
    21:00 +24°C° 0.8 mm 0 mps 744 mmHg 94%
    22:00 +24°C° 0.8 mm 0 mps 744 mmHg 94%
    23:00 +24°C° 0.8 mm 0 mps 744 mmHg 95%

    Day after tomorrow, 19 September, Thursday

    Time Temperature Precipitation Wind Pressure Humidity
    00:00 +24°C° 0.2 mm 0 mps 744 mmHg 95%
    01:00 +25°C° 0.2 mm 1 mps 744 mmHg 95%
    02:00 +25°C° 0.2 mm 1 mps 743 mmHg 95%
    03:00 +23°C° 0.1 mm 0 mps 743 mmHg 95%
    04:00 +23°C° 0.1 mm 0 mps 743 mmHg 95%
    05:00 +23°C° 0.1 mm 0 mps 743 mmHg 95%
    06:00 +24°C° 0 mm 0 mps 744 mmHg 92%
    07:00 +25°C° 0 mm 0 mps 744 mmHg 90%
    08:00 +28°C° 0 mm 1 mps 744 mmHg 88%
    09:00 +29°C° 0.6 mm 1 mps 744 mmHg 85%
    10:00 +30°C° 0.6 mm 1 mps 744 mmHg 83%
    11:00 +31°C° 0.6 mm 1 mps 743 mmHg 81%
    12:00 +31°C° 1.4 mm 1 mps 743 mmHg 82%
    13:00 +30°C° 1.4 mm 1 mps 742 mmHg 83%
    14:00 +30°C° 1.4 mm 1 mps 742 mmHg 84%
    15:00 +30°C° 1 mm 1 mps 742 mmHg 87%
    16:00 +29°C° 1 mm 1 mps 742 mmHg 90%
    17:00 +29°C° 1 mm 1 mps 742 mmHg 92%
    18:00 +28°C° 0.3 mm 1 mps 743 mmHg 93%
    19:00 +27°C° 0.3 mm 1 mps 743 mmHg 94%
    20:00 +26°C° 0.3 mm 1 mps 744 mmHg 95%
    21:00 +26°C° 0.1 mm 1 mps 744 mmHg 95%
    22:00 +26°C° 0.1 mm 1 mps 744 mmHg 95%
    23:00 +25°C° 0.1 mm 1 mps 744 mmHg 95%

    20 September, Friday

    Time Temperature Precipitation Wind Pressure Humidity
    00:00 +25°C° 0 mm 1 mps 744 mmHg 95%
    01:00 +25°C° 0 mm 1 mps 744 mmHg 94%
    02:00 +23°C° 0 mm 0 mps 743 mmHg 94%
    03:00 +23°C° 0 mm 0 mps 743 mmHg 94%
    04:00 +23°C° 0 mm 0 mps 744 mmHg 94%
    05:00 +22°C° 0 mm 0 mps 744 mmHg 94%
    06:00 +24°C° 0.2 mm 0 mps 744 mmHg 91%
    07:00 +25°C° 0.2 mm 0 mps 744 mmHg 88%
    08:00 +27°C° 0.2 mm 0 mps 745 mmHg 85%
    09:00 +30°C° 0.1 mm 1 mps 745 mmHg 79%
    10:00 +31°C° 0.1 mm 2 mps 744 mmHg 74%
    11:00 +32°C° 0.1 mm 2 mps 744 mmHg 69%
    12:00 +32°C° 0.3 mm 2 mps 743 mmHg 71%
    13:00 +32°C° 0.3 mm 2 mps 743 mmHg 72%
    14:00 +33°C° 0.3 mm 3 mps 742 mmHg 74%
    15:00 +31°C° 0.4 mm 2 mps 743 mmHg 80%
    16:00 +30°C° 0.4 mm 2 mps 743 mmHg 85%
    17:00 +29°C° 0.4 mm 1 mps 743 mmHg 90%
    18:00 +28°C° 0.5 mm 1 mps 744 mmHg 92%
    19:00 +27°C° 0.5 mm 1 mps 744 mmHg 93%
    20:00 +26°C° 0.5 mm 1 mps 745 mmHg 94%
    21:00 +24°C° 0.1 mm 0 mps 745 mmHg 94%
    22:00 +23°C° 0.1 mm 0 mps 746 mmHg 95%
    23:00 +23°C° 0.1 mm 0 mps 746 mmHg 95%

    21 September, Saturday

    Time Temperature Precipitation Wind Pressure Humidity
    00:00 +23°C° 0 mm 0 mps 745 mmHg 95%
    01:00 +23°C° 0 mm 0 mps 745 mmHg 95%
    02:00 +23°C° 0 mm 0 mps 745 mmHg 96%
    03:00 +22°C° 0 mm 0 mps 745 mmHg 96%
    04:00 +22°C° 0 mm 0 mps 745 mmHg 96%
    05:00 +22°C° 0 mm 0 mps 745 mmHg 96%
    06:00 +23°C° 0 mm 0 mps 745 mmHg 93%
    07:00 +25°C° 0 mm 0 mps 746 mmHg 91%
    08:00 +26°C° 0 mm 0 mps 746 mmHg 88%
    09:00 +29°C° 0.1 mm 1 mps 746 mmHg 82%
    10:00 +30°C° 0.1 mm 1 mps 745 mmHg 77%
    11:00 +32°C° 0.1 mm 2 mps 745 mmHg 71%
    12:00 +31°C° 0.3 mm 2 mps 744 mmHg 73%
    13:00 +31°C° 0.3 mm 2 mps 744 mmHg 74%
    14:00 +31°C° 0.3 mm 2 mps 743 mmHg 76%
    15:00 +30°C° 0.8 mm 2 mps 743 mmHg 81%
    16:00 +29°C° 0.8 mm 1 mps 743 mmHg 86%
    17:00 +28°C° 0.8 mm 1 mps 744 mmHg 91%
    18:00 +28°C° 0.2 mm 1 mps 744 mmHg 92%
    19:00 +27°C° 0.2 mm 1 mps 745 mmHg 93%
    20:00 +26°C° 0.2 mm 1 mps 746 mmHg 94%
    21:00 +25°C° 0 mm 1 mps 746 mmHg 94%
    22:00 +25°C° 0 mm 1 mps 746 mmHg 94%
    23:00 +25°C° 0 mm 1 mps 746 mmHg 94%

    22 September, Sunday

    Time Temperature Precipitation Wind Pressure Humidity
    00:00 +24°C° 0 mm 1 mps 746 mmHg 94%
    01:00 +24°C° 0 mm 1 mps 745 mmHg 94%
    02:00 +24°C° 0 mm 1 mps 745 mmHg 94%
    03:00 +24°C° 0 mm 1 mps 745 mmHg 94%
    04:00 +24°C° 0 mm 1 mps 745 mmHg 94%
    05:00 +23°C° 0 mm 1 mps 745 mmHg 94%
    06:00 +25°C° 0 mm 1 mps 745 mmHg 89%
    07:00 +25°C° 0 mm 0 mps 746 mmHg 85%
    08:00 +26°C° 0 mm 0 mps 746 mmHg 81%
    09:00 +29°C° 0 mm 1 mps 746 mmHg 78%
    10:00 +30°C° 0 mm 1 mps 745 mmHg 75%
    11:00 +31°C° 0 mm 2 mps 745 mmHg 71%
    12:00 +31°C° 0.1 mm 2 mps 744 mmHg 72%
    13:00 +31°C° 0.1 mm 2 mps 744 mmHg 73%
    14:00 +31°C° 0.1 mm 2 mps 743 mmHg 74%
    15:00 +30°C° 0.3 mm 1 mps 743 mmHg 79%
    16:00 +30°C° 0.3 mm 1 mps 743 mmHg 83%
    17:00 +29°C° 0.3 mm 1 mps 744 mmHg 87%
    18:00 +28°C° 0.1 mm 1 mps 744 mmHg 89%
    19:00 +27°C° 0.1 mm 1 mps 745 mmHg 92%
    20:00 +26°C° 0.1 mm 1 mps 745 mmHg 94%
    21:00 +25°C° 0 mm 1 mps 746 mmHg 94%
    22:00 +25°C° 0 mm 1 mps 746 mmHg 94%
    23:00 +25°C° 0 mm 1 mps 746 mmHg 94%
    Show more